loading
|

THOR ABLESTAR R/B, 953

Orbit data source: Space-Track

THOR ABLESTAR R/B, 953 is space debris in LEO originally from a launch on Sun, 13 Dec 1964 UTC launched from the Air Force Western Test Range (AFWTR). Debris objects in space refer to the collection of defunct objects orbiting the Earth. Examples of debris include non-operational satellites, rocket bodies, and fragments generated from explosions, collisions, or faulty payload assembly.

Loading next visibility...
Loading greatness...
THOR ABLESTAR R/B details
Identifier
953, 1964-083A
Orbit
LEO
Last TLE update1 day ago
Origin
Flag of USUSAF SSD (US)
ManufacturerAerojet
Mission statusUnknown
MissionUnknown
Bus & MotorABLESTAR, Unknown motor
Mass~600 kg wet, 600 kg dry
Launch date (UTC)
1964-12-13 (60 years ago)
Launch vehicleUnknown
Launch site
Air Force Western Test Range (AFWTR)
Object type
Payload
Rocket body
Debris
Radar Cross Section3.7 m², Large (>1 m²)

Expand to show TLE details & history

TLE from 1 day ago
0 THOR ABLESTAR R/B
1 00953U 64083A   24250.39369549  .00000127  00000-0  15997-3 0  9993
2 00953  90.0203 191.2120 0031844 174.6445 298.3116 13.58758086960512
Epoch: 2024-09-06T09:26Z
Definitive object data (Epoch: 2024-09-06T09:26:55.29Z)
Latitude67.44273°
Longitude-116.43663°
Altitude1,040.819 km
Speed7.343 km/s
True Right ascension00h 45m 02s
True Declination67° 19' 31"
Sunlit
Object was in daylight at TLE epoch
Predictive object data (real-time)
Latitude11.84421°
Longitude63.51323°
Altitude1,064.456 km
Speed7.31 km/s
Apparent Right ascension15h 31m 12s
Apparent Declination-22° 16' 30"
Sunlit
Object is in daylight
Predictive observer data (real-time)
Local Sidereal Time08:54:29
Azimuth102.11° ESE
Elevation-20.881°
Doppler factor1
Orbital elements
Apogee1,060.859 km
Perigee1,013.632 km
Semi-major axis7,415.383 km
Eccentricity0.0031844
Inclination90.0203°
RAAN191.212°
Arg. of periapsis174.6445°
True anomaly297.98974°
Mean anomaly298.3116°
Eccentric anomaly298.15073°
Mean motion3.39893 °/min
BSTAR0.00015997
Period105.92 mins
No data available

THOR ABLESTAR R/B Visibility forecast

Observer location: 39.9160978°, -105.1181434

THOR ABLESTAR R/B is not visible in the next 10 days
Span
Click to sort rows by Start time (UTC) header in descending order
Start Az.
Max El. time (UTC)
Max El. Az.
Max El.
End time (UTC)
End Az.